• In Spain
  • List of Countries
  • For 7 days
  • Water Temperature
  • Satellite Maps
  • Weather Map
  • Weather Widgets
  • user-avatar
    Login

    Hourly Weather Ivkovo

    Today, 23 July, Monday

    Time Temperature Precipitation Wind Pressure Humidity
    00:00 +17°C° 0 mm 2 mps 732 mmHg 98%
    01:00 +17°C° 0 mm 2 mps 732 mmHg 98%
    02:00 +16°C° 0 mm 1 mps 732 mmHg 99%
    03:00 +18°C° 0.2 mm 1 mps 732 mmHg 98%
    04:00 +17°C° 0.2 mm 2 mps 732 mmHg 98%
    05:00 +17°C° 0.2 mm 2 mps 732 mmHg 98%
    06:00 +18°C° 0 mm 2 mps 732 mmHg 93%
    07:00 +20°C° 0 mm 2 mps 733 mmHg 88%
    08:00 +21°C° 0 mm 3 mps 733 mmHg 82%
    09:00 +21°C° 0.3 mm 3 mps 733 mmHg 81%
    10:00 +22°C° 0.3 mm 3 mps 733 mmHg 80%
    11:00 +22°C° 0.3 mm 3 mps 733 mmHg 78%
    12:00 +24°C° 0.5 mm 3 mps 733 mmHg 78%
    13:00 +24°C° 0.5 mm 3 mps 733 mmHg 78%
    14:00 +24°C° 0.5 mm 3 mps 732 mmHg 77%
    15:00 +24°C° 0.2 mm 3 mps 733 mmHg 76%
    16:00 +24°C° 0.2 mm 3 mps 733 mmHg 75%
    17:00 +24°C° 0.2 mm 3 mps 733 mmHg 73%
    18:00 +21°C° 0.1 mm 3 mps 733 mmHg 80%
    19:00 +20°C° 0.1 mm 2 mps 733 mmHg 86%
    20:00 +19°C° 0.1 mm 2 mps 733 mmHg 92%
    21:00 +18°C° 0 mm 2 mps 733 mmHg 94%
    22:00 +17°C° 0 mm 2 mps 733 mmHg 95%
    23:00 +17°C° 0 mm 2 mps 733 mmHg 97%

    Tomorrow, 24 July, Tuesday

    Time Temperature Precipitation Wind Pressure Humidity
    00:00 +16°C° 0 mm 2 mps 733 mmHg 97%
    01:00 +16°C° 0 mm 2 mps 733 mmHg 98%
    02:00 +15°C° 0 mm 2 mps 733 mmHg 98%
    03:00 +15°C° 0 mm 2 mps 734 mmHg 98%
    04:00 +15°C° 0 mm 2 mps 734 mmHg 97%
    05:00 +15°C° 0 mm 2 mps 734 mmHg 97%
    06:00 +16°C° 0 mm 2 mps 734 mmHg 92%
    07:00 +17°C° 0 mm 3 mps 734 mmHg 88%
    08:00 +18°C° 0 mm 3 mps 734 mmHg 83%
    09:00 +19°C° 0 mm 3 mps 734 mmHg 79%
    10:00 +20°C° 0 mm 3 mps 734 mmHg 75%
    11:00 +21°C° 0 mm 3 mps 734 mmHg 71%
    12:00 +21°C° 0 mm 3 mps 734 mmHg 72%
    13:00 +21°C° 0 mm 3 mps 734 mmHg 73%
    14:00 +21°C° 0 mm 3 mps 734 mmHg 73%
    15:00 +21°C° 0 mm 3 mps 734 mmHg 75%
    16:00 +21°C° 0 mm 3 mps 734 mmHg 78%
    17:00 +21°C° 0 mm 3 mps 734 mmHg 80%
    18:00 +20°C° 0 mm 2 mps 735 mmHg 83%
    19:00 +19°C° 0 mm 2 mps 735 mmHg 87%
    20:00 +18°C° 0 mm 2 mps 735 mmHg 91%
    21:00 +18°C° 0 mm 2 mps 735 mmHg 93%
    22:00 +17°C° 0 mm 2 mps 735 mmHg 95%
    23:00 +17°C° 0 mm 2 mps 735 mmHg 98%

    Day after tomorrow, 25 July, Wednesday

    Time Temperature Precipitation Wind Pressure Humidity
    00:00 +16°C° 0 mm 2 mps 735 mmHg 98%
    01:00 +16°C° 0 mm 2 mps 735 mmHg 98%
    02:00 +16°C° 0 mm 1 mps 735 mmHg 99%
    03:00 +16°C° 0 mm 2 mps 735 mmHg 98%
    04:00 +16°C° 0 mm 2 mps 735 mmHg 98%
    05:00 +17°C° 0 mm 2 mps 735 mmHg 97%
    06:00 +17°C° 0 mm 2 mps 735 mmHg 94%
    07:00 +18°C° 0 mm 2 mps 736 mmHg 92%
    08:00 +19°C° 0 mm 2 mps 736 mmHg 89%
    09:00 +21°C° 0 mm 2 mps 736 mmHg 84%
    10:00 +23°C° 0 mm 2 mps 736 mmHg 80%
    11:00 +24°C° 0 mm 2 mps 736 mmHg 75%
    12:00 +25°C° 0.2 mm 2 mps 736 mmHg 74%
    13:00 +25°C° 0.2 mm 3 mps 736 mmHg 74%
    14:00 +26°C° 0.2 mm 3 mps 736 mmHg 73%
    15:00 +25°C° 0.4 mm 3 mps 736 mmHg 76%
    16:00 +25°C° 0.4 mm 2 mps 736 mmHg 79%
    17:00 +25°C° 0.4 mm 2 mps 736 mmHg 83%
    18:00 +24°C° 0.3 mm 2 mps 736 mmHg 86%
    19:00 +22°C° 0.3 mm 1 mps 736 mmHg 90%
    20:00 +21°C° 0.3 mm 1 mps 736 mmHg 93%
    21:00 +20°C° 0 mm 1 mps 737 mmHg 94%
    22:00 +19°C° 0 mm 1 mps 737 mmHg 94%
    23:00 +19°C° 0 mm 1 mps 737 mmHg 95%

    26 July, Thursday

    Time Temperature Precipitation Wind Pressure Humidity
    00:00 +18°C° 0 mm 1 mps 737 mmHg 95%
    01:00 +16°C° 0 mm 1 mps 737 mmHg 96%
    02:00 +16°C° 0 mm 1 mps 737 mmHg 96%
    03:00 +16°C° 0 mm 1 mps 737 mmHg 96%
    04:00 +15°C° 0 mm 1 mps 737 mmHg 95%
    05:00 +15°C° 0 mm 2 mps 737 mmHg 95%
    06:00 +16°C° 0 mm 2 mps 737 mmHg 91%
    07:00 +17°C° 0 mm 2 mps 737 mmHg 87%
    08:00 +19°C° 0 mm 2 mps 737 mmHg 84%
    09:00 +19°C° 0 mm 2 mps 737 mmHg 82%
    10:00 +20°C° 0 mm 2 mps 737 mmHg 80%
    11:00 +21°C° 0 mm 2 mps 737 mmHg 78%
    12:00 +23°C° 0.1 mm 2 mps 737 mmHg 77%
    13:00 +23°C° 0.1 mm 2 mps 737 mmHg 77%
    14:00 +24°C° 0.1 mm 2 mps 737 mmHg 77%
    15:00 +24°C° 0.4 mm 2 mps 737 mmHg 79%
    16:00 +24°C° 0.4 mm 2 mps 737 mmHg 82%
    17:00 +25°C° 0.4 mm 1 mps 737 mmHg 84%
    18:00 +24°C° 0.6 mm 1 mps 737 mmHg 87%
    19:00 +22°C° 0.6 mm 1 mps 737 mmHg 91%
    20:00 +21°C° 0.6 mm 1 mps 737 mmHg 94%
    21:00 +21°C° 0.2 mm 1 mps 737 mmHg 95%
    22:00 +20°C° 0.2 mm 1 mps 737 mmHg 96%
    23:00 +20°C° 0.2 mm 1 mps 737 mmHg 97%

    27 July, Friday

    Time Temperature Precipitation Wind Pressure Humidity
    00:00 +19°C° 0 mm 1 mps 737 mmHg 97%
    01:00 +19°C° 0 mm 1 mps 737 mmHg 97%
    02:00 +19°C° 0 mm 1 mps 737 mmHg 97%
    03:00 +19°C° 0 mm 1 mps 737 mmHg 98%
    04:00 +19°C° 0 mm 1 mps 738 mmHg 98%
    05:00 +19°C° 0 mm 1 mps 738 mmHg 98%
    06:00 +20°C° 0 mm 1 mps 738 mmHg 94%
    07:00 +21°C° 0 mm 2 mps 738 mmHg 91%
    08:00 +23°C° 0 mm 2 mps 738 mmHg 87%
    09:00 +25°C° 0 mm 2 mps 738 mmHg 79%
    10:00 +26°C° 0 mm 2 mps 738 mmHg 70%
    11:00 +28°C° 0 mm 2 mps 738 mmHg 62%
    12:00 +28°C° 0.2 mm 2 mps 738 mmHg 63%
    13:00 +28°C° 0.2 mm 2 mps 738 mmHg 64%
    14:00 +28°C° 0.2 mm 2 mps 738 mmHg 65%
    15:00 +28°C° 0.1 mm 2 mps 738 mmHg 67%
    16:00 +27°C° 0.1 mm 2 mps 738 mmHg 70%
    17:00 +27°C° 0.1 mm 2 mps 738 mmHg 73%
    18:00 +25°C° 0.3 mm 2 mps 738 mmHg 79%
    19:00 +24°C° 0.3 mm 2 mps 738 mmHg 84%
    20:00 +21°C° 0.3 mm 2 mps 739 mmHg 90%
    21:00 +21°C° 0 mm 2 mps 739 mmHg 91%
    22:00 +20°C° 0 mm 2 mps 739 mmHg 92%
    23:00 +20°C° 0 mm 2 mps 739 mmHg 93%

    28 July, Saturday

    Time Temperature Precipitation Wind Pressure Humidity
    00:00 +20°C° 0.3 mm 1 mps 739 mmHg 94%
    01:00 +20°C° 0.3 mm 1 mps 739 mmHg 95%
    02:00 +20°C° 0.3 mm 1 mps 739 mmHg 95%
    03:00 +20°C° 0 mm 1 mps 739 mmHg 95%
    04:00 +20°C° 0 mm 1 mps 739 mmHg 94%
    05:00 +20°C° 0 mm 1 mps 739 mmHg 94%
    06:00 +21°C° 0 mm 2 mps 739 mmHg 89%
    07:00 +23°C° 0 mm 2 mps 739 mmHg 84%
    08:00 +24°C° 0 mm 2 mps 739 mmHg 79%
    09:00 +26°C° 0.5 mm 2 mps 739 mmHg 73%
    10:00 +27°C° 0.5 mm 2 mps 739 mmHg 67%
    11:00 +28°C° 0.5 mm 2 mps 739 mmHg 61%
    12:00 +28°C° 0.8 mm 2 mps 739 mmHg 66%
    13:00 +28°C° 0.8 mm 2 mps 739 mmHg 72%
    14:00 +27°C° 0.8 mm 2 mps 738 mmHg 77%
    15:00 +27°C° 0.8 mm 2 mps 738 mmHg 80%
    16:00 +26°C° 0.8 mm 2 mps 738 mmHg 83%
    17:00 +25°C° 0.8 mm 2 mps 738 mmHg 87%
    18:00 +24°C° 0.3 mm 2 mps 738 mmHg 89%
    19:00 +23°C° 0.3 mm 2 mps 739 mmHg 92%
    20:00 +21°C° 0.3 mm 2 mps 739 mmHg 95%
    21:00 +20°C° 0 mm 3 mps 739 mmHg 95%
    22:00 +20°C° 0 mm 3 mps 739 mmHg 96%
    23:00 +20°C° 0 mm 3 mps 739 mmHg 97%
    Show more